Time,TemperatureF,DewpointF,PressureIn,WindDirection,WindDirectionDegrees,WindSpeedMPH,WindSpeedGustMPH,Humidity,HourlyPrecipIn,Conditions,Clouds,dailyrainin,SoftwareType,DateUTC
2013-03-24 00:03:00,38.8,33.1,29.92,North,0,0.0,0.0,79,0.00,,,0.00,WUHU21623XXSP,2013-03-24 05:03:00,
2013-03-24 00:08:00,38.5,32.9,29.92,North,0,0.0,0.0,80,0.00,,,0.00,WUHU21623XXSP,2013-03-24 05:08:00,
2013-03-24 00:13:00,38.1,33.1,29.93,North,0,0.0,0.0,82,0.00,,,0.00,WUHU21623XXSP,2013-03-24 05:13:00,
2013-03-24 00:18:00,37.6,32.9,29.92,North,0,0.0,0.0,82,0.00,,,0.00,WUHU21623XXSP,2013-03-24 05:18:00,
2013-03-24 00:23:00,37.2,32.5,29.92,North,0,0.0,0.0,84,0.00,,,0.00,WUHU21623XXSP,2013-03-24 05:23:00,
2013-03-24 00:28:00,36.9,32.6,29.92,North,0,0.0,0.0,84,0.00,,,0.00,WUHU21623XXSP,2013-03-24 05:28:00,
2013-03-24 00:33:00,36.5,32.1,29.92,North,0,0.0,0.0,84,0.00,,,0.00,WUHU21623XXSP,2013-03-24 05:33:00,
2013-03-24 00:38:00,36.1,31.9,29.92,North,0,0.0,0.0,84,0.00,,,0.00,WUHU21623XXSP,2013-03-24 05:38:00,
2013-03-24 00:43:00,35.8,31.6,29.90,North,0,0.0,0.0,85,0.00,,,0.00,WUHU21623XXSP,2013-03-24 05:43:00,
2013-03-24 00:48:00,35.2,31.6,29.90,North,0,0.0,0.0,86,0.00,,,0.00,WUHU21623XXSP,2013-03-24 05:48:00,
2013-03-24 00:53:00,34.7,30.7,29.90,North,0,0.0,0.0,86,0.00,,,0.00,WUHU21623XXSP,2013-03-24 05:53:00,
2013-03-24 00:58:00,34.3,30.5,29.90,North,0,0.0,0.0,86,0.00,,,0.00,WUHU21623XXSP,2013-03-24 05:58:00,
2013-03-24 01:03:00,34.3,30.5,29.89,North,0,0.0,0.0,86,0.00,,,0.00,WUHU21623XXSP,2013-03-24 06:03:00,
2013-03-24 01:08:00,33.8,30.4,29.91,North,0,0.0,0.0,87,0.00,,,0.00,WUHU21623XXSP,2013-03-24 06:08:00,
2013-03-24 01:13:00,33.6,30.1,29.90,North,0,0.0,0.0,87,0.00,,,0.00,WUHU21623XXSP,2013-03-24 06:13:00,
2013-03-24 01:18:00,33.6,30.1,29.88,North,0,0.0,0.0,87,0.00,,,0.00,WUHU21623XXSP,2013-03-24 06:18:00,
2013-03-24 01:23:00,33.6,30.4,29.88,North,0,0.0,0.0,88,0.00,,,0.00,WUHU21623XXSP,2013-03-24 06:23:00,
2013-03-24 01:28:00,33.6,30.4,29.87,North,0,0.0,0.0,88,0.00,,,0.00,WUHU21623XXSP,2013-03-24 06:28:00,
2013-03-24 01:33:00,33.6,30.4,29.88,North,0,0.0,0.0,88,0.00,,,0.00,WUHU21623XXSP,2013-03-24 06:33:00,
2013-03-24 01:38:00,33.6,30.4,29.87,North,0,0.0,0.0,88,0.00,,,0.00,WUHU21623XXSP,2013-03-24 06:38:00,
2013-03-24 01:43:00,33.6,30.6,29.87,North,0,0.0,0.0,89,0.00,,,0.00,WUHU21623XXSP,2013-03-24 06:43:00,
2013-03-24 01:48:00,33.6,30.6,29.86,North,0,0.0,0.0,89,0.00,,,0.00,WUHU21623XXSP,2013-03-24 06:48:00,
2013-03-24 01:53:00,33.6,30.6,29.85,North,0,0.0,0.0,89,0.00,,,0.00,WUHU21623XXSP,2013-03-24 06:53:00,
2013-03-24 01:58:00,33.6,30.6,29.86,North,0,0.0,0.0,89,0.00,,,0.00,WUHU21623XXSP,2013-03-24 06:58:00,
2013-03-24 02:03:00,33.6,30.6,29.86,North,0,0.0,0.0,89,0.00,,,0.00,WUHU21623XXSP,2013-03-24 07:03:00,
2013-03-24 02:08:00,33.6,30.6,29.85,North,0,0.0,0.0,89,0.00,,,0.00,WUHU21623XXSP,2013-03-24 07:08:00,
2013-03-24 02:13:00,33.6,30.9,29.86,North,0,0.0,0.0,90,0.00,,,0.00,WUHU21623XXSP,2013-03-24 07:13:00,
2013-03-24 02:18:00,33.6,30.9,29.86,North,0,0.0,0.0,90,0.00,,,0.00,WUHU21623XXSP,2013-03-24 07:18:00,
2013-03-24 02:23:00,33.6,30.9,29.86,North,0,0.0,0.0,90,0.00,,,0.00,WUHU21623XXSP,2013-03-24 07:23:00,
2013-03-24 02:28:00,33.6,30.9,29.85,North,0,0.0,0.0,90,0.00,,,0.00,WUHU21623XXSP,2013-03-24 07:28:00,
2013-03-24 02:33:00,33.6,30.9,29.82,North,0,0.0,0.0,90,0.00,,,0.00,WUHU21623XXSP,2013-03-24 07:33:00,
2013-03-24 02:38:00,33.6,30.9,29.84,North,0,0.0,0.0,90,0.00,,,0.00,WUHU21623XXSP,2013-03-24 07:38:00,
2013-03-24 02:43:00,33.6,31.2,29.85,North,0,0.0,0.0,91,0.00,,,0.00,WUHU21623XXSP,2013-03-24 07:43:00,
2013-03-24 02:48:00,33.6,31.2,29.86,North,0,0.0,0.0,91,0.00,,,0.00,WUHU21623XXSP,2013-03-24 07:48:00,
2013-03-24 02:53:00,33.6,31.2,29.86,North,0,0.0,0.0,91,0.00,,,0.00,WUHU21623XXSP,2013-03-24 07:53:00,
2013-03-24 02:58:00,33.6,31.2,29.85,North,0,0.0,0.0,91,0.00,,,0.00,WUHU21623XXSP,2013-03-24 07:58:00,
2013-03-24 03:03:00,33.6,31.2,29.85,North,0,0.0,0.0,91,0.00,,,0.00,WUHU21623XXSP,2013-03-24 08:03:00,
2013-03-24 03:08:00,33.6,31.2,29.85,North,0,0.0,0.0,91,0.00,,,0.00,WUHU21623XXSP,2013-03-24 08:08:00,
2013-03-24 03:13:00,33.6,30.9,29.85,North,0,0.0,0.0,90,0.00,,,0.00,WUHU21623XXSP,2013-03-24 08:13:00,
2013-03-24 03:18:00,33.6,30.9,29.86,North,0,0.0,0.0,90,0.00,,,0.00,WUHU21623XXSP,2013-03-24 08:18:00,
2013-03-24 03:23:00,33.6,30.9,29.86,North,0,0.0,0.0,90,0.00,,,0.00,WUHU21623XXSP,2013-03-24 08:23:00,
2013-03-24 03:28:00,33.6,30.9,29.86,North,0,0.0,0.0,90,0.00,,,0.00,WUHU21623XXSP,2013-03-24 08:28:00,
2013-03-24 03:33:00,33.6,30.9,29.85,North,0,0.0,0.0,90,0.00,,,0.00,WUHU21623XXSP,2013-03-24 08:33:00,
2013-03-24 03:38:00,33.6,30.9,29.84,North,0,0.0,0.0,90,0.00,,,0.00,WUHU21623XXSP,2013-03-24 08:38:00,
2013-03-24 03:43:00,33.6,30.9,29.84,North,0,0.0,0.0,90,0.00,,,0.00,WUHU21623XXSP,2013-03-24 08:43:00,
2013-03-24 03:48:00,33.6,30.9,29.83,North,0,0.0,0.0,90,0.00,,,0.00,WUHU21623XXSP,2013-03-24 08:48:00,
2013-03-24 03:53:00,33.6,30.9,29.83,North,0,0.0,0.0,90,0.00,,,0.00,WUHU21623XXSP,2013-03-24 08:53:00,
2013-03-24 03:58:00,33.6,30.9,29.82,North,0,0.0,0.0,90,0.00,,,0.00,WUHU21623XXSP,2013-03-24 08:58:00,
2013-03-24 04:03:00,33.4,30.8,29.82,North,0,0.0,0.0,90,0.00,,,0.00,WUHU21623XXSP,2013-03-24 09:03:00,
2013-03-24 04:08:00,33.4,30.8,29.81,North,0,0.0,0.0,90,0.00,,,0.00,WUHU21623XXSP,2013-03-24 09:08:00,
2013-03-24 04:14:00,33.4,30.8,29.81,North,0,0.0,0.0,90,0.00,,,0.00,WUHU21623XXSP,2013-03-24 09:14:00,
2013-03-24 04:19:00,33.4,30.8,29.81,North,0,0.0,0.0,90,0.00,,,0.00,WUHU21623XXSP,2013-03-24 09:19:00,
2013-03-24 04:24:00,33.4,30.8,29.80,North,0,0.0,0.0,90,0.00,,,0.00,WUHU21623XXSP,2013-03-24 09:24:00,
2013-03-24 04:29:00,33.1,30.5,29.79,North,0,0.0,0.0,90,0.00,,,0.00,WUHU21623XXSP,2013-03-24 09:29:00,
2013-03-24 04:34:00,33.1,30.5,29.78,North,0,0.0,0.0,90,0.00,,,0.00,WUHU21623XXSP,2013-03-24 09:34:00,
2013-03-24 04:39:00,33.1,30.5,29.78,North,0,0.0,0.0,90,0.00,,,0.00,WUHU21623XXSP,2013-03-24 09:39:00,
2013-03-24 04:44:00,33.1,30.7,29.78,North,0,0.0,0.0,91,0.00,,,0.00,WUHU21623XXSP,2013-03-24 09:44:00,
2013-03-24 04:49:00,32.9,30.5,29.77,North,0,0.0,0.0,91,0.00,,,0.00,WUHU21623XXSP,2013-03-24 09:49:00,
2013-03-24 04:54:00,32.9,30.5,29.77,North,0,0.0,0.0,91,0.00,,,0.00,WUHU21623XXSP,2013-03-24 09:54:00,
2013-03-24 04:59:00,32.9,30.5,29.78,North,0,0.0,0.0,91,0.00,,,0.00,WUHU21623XXSP,2013-03-24 09:59:00,
2013-03-24 05:04:00,32.9,30.4,29.77,North,0,0.0,0.0,91,0.00,,,0.00,WUHU21623XXSP,2013-03-24 10:04:00,
2013-03-24 05:09:00,32.7,30.4,29.77,North,0,0.0,0.0,91,0.00,,,0.00,WUHU21623XXSP,2013-03-24 10:09:00,
2013-03-24 05:14:00,32.7,30.4,29.77,North,0,0.0,0.0,91,0.00,,,0.00,WUHU21623XXSP,2013-03-24 10:14:00,
2013-03-24 05:19:00,32.7,30.4,29.76,North,0,0.0,0.0,91,0.00,,,0.00,WUHU21623XXSP,2013-03-24 10:19:00,
2013-03-24 05:24:00,32.7,30.4,29.75,North,0,0.0,0.0,91,0.00,,,0.00,WUHU21623XXSP,2013-03-24 10:24:00,
2013-03-24 05:29:00,32.7,30.4,29.75,North,0,0.0,0.0,91,0.00,,,0.00,WUHU21623XXSP,2013-03-24 10:29:00,
2013-03-24 05:34:00,32.7,30.4,29.75,North,0,0.0,0.0,91,0.00,,,0.00,WUHU21623XXSP,2013-03-24 10:34:00,
2013-03-24 05:39:00,32.7,30.4,29.74,North,0,0.0,0.0,91,0.00,,,0.00,WUHU21623XXSP,2013-03-24 10:39:00,
2013-03-24 05:44:00,32.7,30.4,29.75,North,0,0.0,0.0,91,0.00,,,0.00,WUHU21623XXSP,2013-03-24 10:44:00,
2013-03-24 05:49:00,32.7,30.2,29.75,North,0,0.0,0.0,91,0.00,,,0.00,WUHU21623XXSP,2013-03-24 10:49:00,
2013-03-24 05:54:00,32.5,30.2,29.75,North,0,0.0,0.0,91,0.00,,,0.00,WUHU21623XXSP,2013-03-24 10:54:00,
2013-03-24 05:59:00,32.4,30.1,29.74,North,0,0.0,0.0,91,0.00,,,0.00,WUHU21623XXSP,2013-03-24 10:59:00,
2013-03-24 06:04:00,32.4,30.1,29.74,North,0,0.0,0.0,91,0.00,,,0.00,WUHU21623XXSP,2013-03-24 11:04:00,
2013-03-24 06:09:00,32.2,29.9,29.73,North,0,0.0,0.0,91,0.00,,,0.00,WUHU21623XXSP,2013-03-24 11:09:00,
2013-03-24 06:14:00,32.2,29.9,29.72,North,0,0.0,0.0,91,0.00,,,0.00,WUHU21623XXSP,2013-03-24 11:14:00,
2013-03-24 06:19:00,32.2,29.9,29.71,North,0,0.0,0.0,91,0.00,,,0.00,WUHU21623XXSP,2013-03-24 11:19:00,
2013-03-24 06:24:00,31.8,29.6,29.71,North,0,0.0,0.0,91,0.00,,,0.00,WUHU21623XXSP,2013-03-24 11:24:00,
2013-03-24 06:29:00,31.8,29.6,29.72,North,0,0.0,0.0,91,0.00,,,0.00,WUHU21623XXSP,2013-03-24 11:29:00,
2013-03-24 06:35:00,31.8,29.6,29.72,North,0,0.0,0.0,91,0.00,,,0.00,WUHU21623XXSP,2013-03-24 11:35:00,
2013-03-24 06:40:00,31.6,29.4,29.72,North,0,0.0,0.0,91,0.00,,,0.00,WUHU21623XXSP,2013-03-24 11:40:00,
2013-03-24 06:45:00,31.6,29.4,29.73,North,0,0.0,0.0,91,0.00,,,0.00,WUHU21623XXSP,2013-03-24 11:45:00,
2013-03-24 06:50:00,31.8,29.6,29.74,North,0,0.0,0.0,91,0.00,,,0.00,WUHU21623XXSP,2013-03-24 11:50:00,
2013-03-24 06:55:00,31.6,29.4,29.76,North,0,0.0,0.0,91,0.00,,,0.00,WUHU21623XXSP,2013-03-24 11:55:00,
2013-03-24 07:00:00,31.6,29.4,29.77,North,0,0.0,0.0,91,0.00,,,0.00,WUHU21623XXSP,2013-03-24 12:00:00,
2013-03-24 07:05:00,31.6,29.4,29.76,North,0,0.0,0.0,91,0.00,,,0.00,WUHU21623XXSP,2013-03-24 12:05:00,
2013-03-24 07:10:00,31.6,29.4,29.77,North,0,0.0,0.0,91,0.00,,,0.00,WUHU21623XXSP,2013-03-24 12:10:00,
2013-03-24 07:15:00,31.5,29.4,29.74,North,0,0.0,0.0,91,0.00,,,0.00,WUHU21623XXSP,2013-03-24 12:15:00,
2013-03-24 07:20:00,31.3,29.0,29.73,North,0,0.0,0.0,91,0.00,,,0.00,WUHU21623XXSP,2013-03-24 12:20:00,
2013-03-24 07:25:00,31.3,29.0,29.74,North,0,0.0,0.0,91,0.00,,,0.00,WUHU21623XXSP,2013-03-24 12:25:00,
2013-03-24 07:30:00,31.3,29.0,29.76,North,0,0.0,0.0,91,0.00,,,0.00,WUHU21623XXSP,2013-03-24 12:30:00,
2013-03-24 07:35:00,31.1,28.8,29.76,North,0,0.0,0.0,91,0.00,,,0.00,WUHU21623XXSP,2013-03-24 12:35:00,
2013-03-24 07:40:00,30.9,28.7,29.76,North,0,0.0,0.0,91,0.00,,,0.00,WUHU21623XXSP,2013-03-24 12:40:00,
2013-03-24 07:45:00,30.9,28.7,29.76,North,0,0.0,0.0,91,0.00,,,0.00,WUHU21623XXSP,2013-03-24 12:45:00,
2013-03-24 07:50:00,30.9,28.7,29.76,North,0,0.0,0.0,91,0.00,,,0.00,WUHU21623XXSP,2013-03-24 12:50:00,
2013-03-24 07:55:00,30.9,28.7,29.75,North,0,0.0,0.0,91,0.00,,,0.00,WUHU21623XXSP,2013-03-24 12:55:00,
2013-03-24 08:00:00,30.7,28.5,29.75,North,0,0.0,0.0,91,0.00,,,0.00,WUHU21623XXSP,2013-03-24 13:00:00,
2013-03-24 08:05:00,30.7,28.5,29.76,North,0,0.0,0.0,91,0.00,,,0.00,WUHU21623XXSP,2013-03-24 13:05:00,
2013-03-24 08:10:00,30.7,28.5,29.75,North,0,0.0,0.0,91,0.00,,,0.00,WUHU21623XXSP,2013-03-24 13:10:00,
2013-03-24 08:15:00,30.7,28.5,29.74,North,0,0.0,0.0,91,0.00,,,0.00,WUHU21623XXSP,2013-03-24 13:15:00,
2013-03-24 08:20:00,30.7,28.5,29.74,North,0,0.0,0.0,91,0.00,,,0.00,WUHU21623XXSP,2013-03-24 13:20:00,
2013-03-24 08:25:00,30.7,28.5,29.75,North,0,0.0,0.0,91,0.00,,,0.00,WUHU21623XXSP,2013-03-24 13:25:00,
2013-03-24 08:30:00,30.7,28.5,29.75,North,0,0.0,0.0,91,0.00,,,0.00,WUHU21623XXSP,2013-03-24 13:30:00,
2013-03-24 08:35:00,30.7,28.5,29.76,North,0,0.0,0.0,91,0.00,,,0.00,WUHU21623XXSP,2013-03-24 13:35:00,
2013-03-24 08:40:00,30.7,28.5,29.75,North,0,0.0,0.0,91,0.00,,,0.00,WUHU21623XXSP,2013-03-24 13:40:00,
2013-03-24 08:45:00,30.7,28.5,29.76,North,0,0.0,0.0,91,0.00,,,0.00,WUHU21623XXSP,2013-03-24 13:45:00,
2013-03-24 08:50:00,30.7,28.5,29.75,North,0,0.0,0.0,91,0.00,,,0.00,WUHU21623XXSP,2013-03-24 13:50:00,
2013-03-24 08:55:00,30.7,28.5,29.76,North,0,0.0,0.0,91,0.00,,,0.00,WUHU21623XXSP,2013-03-24 13:55:00,
2013-03-24 09:00:00,30.7,28.5,29.76,North,0,0.0,0.0,91,0.00,,,0.00,WUHU21623XXSP,2013-03-24 14:00:00,
2013-03-24 09:05:00,30.7,28.5,29.76,North,0,0.0,0.0,91,0.00,,,0.00,WUHU21623XXSP,2013-03-24 14:05:00,
2013-03-24 09:10:00,30.7,28.5,29.76,North,0,0.0,0.0,91,0.00,,,0.00,WUHU21623XXSP,2013-03-24 14:10:00,
2013-03-24 09:15:00,30.7,28.5,29.75,North,0,0.0,0.0,91,0.00,,,0.00,WUHU21623XXSP,2013-03-24 14:15:00,
2013-03-24 09:20:00,30.7,28.5,29.75,North,0,0.0,0.0,91,0.00,,,0.00,WUHU21623XXSP,2013-03-24 14:20:00,
2013-03-24 09:25:00,30.9,28.7,29.75,North,0,0.0,0.0,91,0.00,,,0.00,WUHU21623XXSP,2013-03-24 14:25:00,
2013-03-24 09:30:00,30.9,28.7,29.75,North,0,0.0,0.0,91,0.00,,,0.00,WUHU21623XXSP,2013-03-24 14:30:00,
2013-03-24 09:35:00,30.9,28.7,29.74,North,0,0.0,0.0,91,0.00,,,0.00,WUHU21623XXSP,2013-03-24 14:35:00,
2013-03-24 09:40:00,31.1,28.7,29.74,North,0,0.0,0.0,91,0.00,,,0.00,WUHU21623XXSP,2013-03-24 14:40:00,
2013-03-24 09:45:00,31.1,28.8,29.74,North,0,0.0,0.0,91,0.00,,,0.00,WUHU21623XXSP,2013-03-24 14:45:00,
2013-03-24 09:50:00,30.9,28.7,29.74,North,0,0.0,0.0,91,0.00,,,0.00,WUHU21623XXSP,2013-03-24 14:50:00,
2013-03-24 09:55:00,31.1,28.7,29.74,North,0,0.0,0.0,91,0.00,,,0.00,WUHU21623XXSP,2013-03-24 14:55:00,
2013-03-24 10:00:00,31.1,28.8,29.74,North,0,0.0,0.0,91,0.00,,,0.00,WUHU21623XXSP,2013-03-24 15:00:00,
2013-03-24 10:05:00,30.9,28.7,29.74,North,0,0.0,0.0,91,0.00,,,0.00,WUHU21623XXSP,2013-03-24 15:05:00,
2013-03-24 10:10:00,30.9,28.7,29.74,North,0,0.0,0.0,91,0.00,,,0.00,WUHU21623XXSP,2013-03-24 15:10:00,
2013-03-24 10:15:00,30.7,28.7,29.74,North,0,0.0,0.0,91,0.00,,,0.00,WUHU21623XXSP,2013-03-24 15:15:00,
2013-03-24 10:20:00,30.9,28.5,29.74,North,0,0.0,0.0,91,0.00,,,0.00,WUHU21623XXSP,2013-03-24 15:20:00,
2013-03-24 10:25:00,30.7,28.5,29.75,North,0,0.0,0.0,91,0.00,,,0.00,WUHU21623XXSP,2013-03-24 15:25:00,
2013-03-24 10:30:00,30.7,28.5,29.74,North,0,0.0,0.0,91,0.00,,,0.00,WUHU21623XXSP,2013-03-24 15:30:00,
2013-03-24 10:35:00,30.7,28.5,29.74,North,0,0.0,0.0,91,0.00,,,0.00,WUHU21623XXSP,2013-03-24 15:35:00,
2013-03-24 10:40:00,30.7,28.5,29.74,North,0,0.0,0.0,91,0.00,,,0.00,WUHU21623XXSP,2013-03-24 15:40:00,
2013-03-24 10:45:00,30.7,28.5,29.74,North,0,0.0,0.0,91,0.00,,,0.00,WUHU21623XXSP,2013-03-24 15:45:00,
2013-03-24 10:50:00,30.7,28.5,29.74,North,0,0.0,0.0,91,0.00,,,0.00,WUHU21623XXSP,2013-03-24 15:50:00,
2013-03-24 10:55:00,30.9,28.7,29.73,North,0,0.0,0.0,91,0.00,,,0.00,WUHU21623XXSP,2013-03-24 15:55:00,
2013-03-24 11:00:00,30.9,28.7,29.74,North,0,0.0,0.0,91,0.00,,,0.00,WUHU21623XXSP,2013-03-24 16:00:00,
2013-03-24 11:05:00,30.9,28.8,29.74,North,0,0.0,0.0,91,0.00,,,0.00,WUHU21623XXSP,2013-03-24 16:05:00,
2013-03-24 11:10:00,31.1,28.8,29.73,North,0,0.0,0.0,91,0.00,,,0.00,WUHU21623XXSP,2013-03-24 16:10:00,
2013-03-24 11:15:00,31.1,28.8,29.73,North,0,0.0,0.0,91,0.00,,,0.00,WUHU21623XXSP,2013-03-24 16:15:00,
2013-03-24 11:20:00,31.3,29.0,29.74,North,0,0.0,0.0,91,0.00,,,0.00,WUHU21623XXSP,2013-03-24 16:20:00,
2013-03-24 11:25:00,31.3,29.0,29.73,North,0,0.0,0.0,91,0.00,,,0.00,WUHU21623XXSP,2013-03-24 16:25:00,
2013-03-24 11:30:00,31.3,29.0,29.73,North,0,0.0,0.0,91,0.00,,,0.00,WUHU21623XXSP,2013-03-24 16:30:00,
2013-03-24 11:35:00,31.6,29.2,29.72,North,0,0.0,0.0,91,0.00,,,0.00,WUHU21623XXSP,2013-03-24 16:35:00,
2013-03-24 11:40:00,31.6,29.4,29.72,North,0,0.0,0.0,91,0.00,,,0.00,WUHU21623XXSP,2013-03-24 16:40:00,
2013-03-24 11:45:00,31.6,29.4,29.72,North,0,0.0,0.0,91,0.00,,,0.00,WUHU21623XXSP,2013-03-24 16:45:00,
2013-03-24 11:50:00,31.8,29.6,29.72,North,0,0.0,0.0,91,0.00,,,0.00,WUHU21623XXSP,2013-03-24 16:50:00,
2013-03-24 11:55:00,32.2,29.9,29.72,North,0,0.0,0.0,91,0.00,,,0.00,WUHU21623XXSP,2013-03-24 16:55:00,
2013-03-24 12:00:00,32.2,29.9,29.72,North,0,0.0,0.0,91,0.00,,,0.00,WUHU21623XXSP,2013-03-24 17:00:00,
2013-03-24 12:05:00,32.5,30.2,29.73,North,0,0.0,0.0,91,0.00,,,0.00,WUHU21623XXSP,2013-03-24 17:05:00,
2013-03-24 12:10:00,32.5,30.2,29.73,North,0,0.0,0.0,91,0.00,,,0.00,WUHU21623XXSP,2013-03-24 17:10:00,
2013-03-24 12:15:00,32.7,30.2,29.73,North,0,0.0,0.0,91,0.00,,,0.00,WUHU21623XXSP,2013-03-24 17:15:00,
2013-03-24 12:20:00,32.7,30.4,29.73,North,0,0.0,0.0,91,0.00,,,0.00,WUHU21623XXSP,2013-03-24 17:20:00,
2013-03-24 12:25:00,32.7,30.4,29.73,North,0,0.0,0.0,91,0.00,,,0.00,WUHU21623XXSP,2013-03-24 17:25:00,
2013-03-24 12:30:00,32.5,30.2,29.73,North,0,0.0,0.0,91,0.00,,,0.00,WUHU21623XXSP,2013-03-24 17:30:00,
2013-03-24 12:35:00,32.5,30.2,29.73,North,0,0.0,0.0,91,0.00,,,0.00,WUHU21623XXSP,2013-03-24 17:35:00,
2013-03-24 12:40:00,32.5,30.0,29.74,North,0,0.0,0.0,90,0.00,,,0.00,WUHU21623XXSP,2013-03-24 17:40:00,
2013-03-24 12:45:00,32.5,30.0,29.73,North,0,0.0,0.0,90,0.00,,,0.00,WUHU21623XXSP,2013-03-24 17:45:00,
2013-03-24 12:50:00,32.5,30.0,29.74,North,0,0.0,0.0,90,0.00,,,0.00,WUHU21623XXSP,2013-03-24 17:50:00,
2013-03-24 12:55:00,32.7,30.0,29.74,North,0,0.0,0.0,90,0.00,,,0.00,WUHU21623XXSP,2013-03-24 17:55:00,
2013-03-24 13:00:00,32.5,30.1,29.74,North,0,0.0,0.0,90,0.00,,,0.00,WUHU21623XXSP,2013-03-24 18:00:00,
2013-03-24 13:05:00,32.5,30.0,29.74,North,0,0.0,0.0,90,0.00,,,0.00,WUHU21623XXSP,2013-03-24 18:05:00,
2013-03-24 13:10:00,32.5,30.0,29.74,North,0,0.0,0.0,90,0.00,,,0.00,WUHU21623XXSP,2013-03-24 18:10:00,
2013-03-24 13:15:00,32.5,30.0,29.74,North,0,0.0,0.0,90,0.00,,,0.00,WUHU21623XXSP,2013-03-24 18:15:00,
2013-03-24 13:20:00,32.5,30.0,29.74,North,0,0.0,0.0,90,0.00,,,0.00,WUHU21623XXSP,2013-03-24 18:20:00,
2013-03-24 13:26:00,32.5,30.0,29.74,North,0,0.0,0.0,90,0.00,,,0.00,WUHU21623XXSP,2013-03-24 18:26:00,
2013-03-24 13:31:00,32.5,30.1,29.74,North,0,0.0,0.0,90,0.00,,,0.00,WUHU21623XXSP,2013-03-24 18:31:00,
2013-03-24 13:36:00,32.7,29.8,29.74,North,0,0.0,0.0,89,0.00,,,0.00,WUHU21623XXSP,2013-03-24 18:36:00,
2013-03-24 13:41:00,32.5,29.7,29.74,North,0,0.0,0.0,89,0.00,,,0.00,WUHU21623XXSP,2013-03-24 18:41:00,
2013-03-24 13:46:00,32.7,29.7,29.74,North,0,0.0,0.0,89,0.00,,,0.00,WUHU21623XXSP,2013-03-24 18:46:00,
2013-03-24 13:51:00,32.7,29.8,29.74,North,0,0.0,0.0,89,0.00,,,0.00,WUHU21623XXSP,2013-03-24 18:51:00,
2013-03-24 13:56:00,32.7,29.8,29.74,North,0,0.0,0.0,89,0.00,,,0.00,WUHU21623XXSP,2013-03-24 18:56:00,
2013-03-24 14:01:00,32.7,29.8,29.74,North,0,0.0,0.0,89,0.00,,,0.00,WUHU21623XXSP,2013-03-24 19:01:00,
2013-03-24 14:06:00,32.7,29.8,29.75,North,0,0.0,0.0,89,0.00,,,0.00,WUHU21623XXSP,2013-03-24 19:06:00,
2013-03-24 14:11:00,32.7,29.8,29.74,North,0,0.0,0.0,89,0.00,,,0.00,WUHU21623XXSP,2013-03-24 19:11:00,
2013-03-24 14:16:00,32.7,29.8,29.75,North,0,0.0,0.0,89,0.00,,,0.00,WUHU21623XXSP,2013-03-24 19:16:00,
2013-03-24 14:21:00,32.5,29.7,29.74,North,0,0.0,0.0,89,0.00,,,0.00,WUHU21623XXSP,2013-03-24 19:21:00,
2013-03-24 14:26:00,32.5,29.7,29.74,North,0,0.0,0.0,89,0.00,,,0.00,WUHU21623XXSP,2013-03-24 19:26:00,
2013-03-24 14:31:00,32.5,29.7,29.74,North,0,0.0,0.0,89,0.00,,,0.00,WUHU21623XXSP,2013-03-24 19:31:00,
2013-03-24 14:37:00,32.5,29.7,29.74,North,0,0.0,0.0,89,0.00,,,0.00,WUHU21623XXSP,2013-03-24 19:37:00,
2013-03-24 14:42:00,32.5,29.4,29.74,North,0,0.0,0.0,88,0.00,,,0.00,WUHU21623XXSP,2013-03-24 19:42:00,
2013-03-24 14:47:00,32.5,29.4,29.75,North,0,0.0,0.0,88,0.00,,,0.00,WUHU21623XXSP,2013-03-24 19:47:00,
2013-03-24 14:52:00,32.5,29.4,29.75,North,0,0.0,0.0,88,0.00,,,0.00,WUHU21623XXSP,2013-03-24 19:52:00,
2013-03-24 14:57:00,32.5,29.4,29.75,North,0,0.0,0.0,88,0.00,,,0.00,WUHU21623XXSP,2013-03-24 19:57:00,
2013-03-24 15:02:00,32.7,29.4,29.75,North,0,0.0,0.0,88,0.00,,,0.00,WUHU21623XXSP,2013-03-24 20:02:00,
2013-03-24 15:07:00,32.7,29.6,29.75,North,0,0.0,0.0,88,0.00,,,0.00,WUHU21623XXSP,2013-03-24 20:07:00,
2013-03-24 15:12:00,32.7,29.6,29.75,North,0,0.0,0.0,88,0.00,,,0.00,WUHU21623XXSP,2013-03-24 20:12:00,
2013-03-24 15:17:00,32.7,29.6,29.76,North,0,0.0,0.0,88,0.00,,,0.00,WUHU21623XXSP,2013-03-24 20:17:00,
2013-03-24 15:22:00,32.7,29.6,29.76,North,0,0.0,0.0,88,0.00,,,0.00,WUHU21623XXSP,2013-03-24 20:22:00,
2013-03-24 15:27:00,32.7,29.6,29.76,North,0,0.0,0.0,88,0.00,,,0.00,WUHU21623XXSP,2013-03-24 20:27:00,
2013-03-24 15:32:00,32.7,29.6,29.76,North,0,0.0,0.0,88,0.00,,,0.00,WUHU21623XXSP,2013-03-24 20:32:00,
2013-03-24 15:37:00,32.7,29.6,29.76,North,0,0.0,0.0,88,0.00,,,0.00,WUHU21623XXSP,2013-03-24 20:37:00,
2013-03-24 15:42:00,32.5,29.1,29.76,North,0,0.0,0.0,87,0.00,,,0.00,WUHU21623XXSP,2013-03-24 20:42:00,
2013-03-24 15:47:00,32.5,29.1,29.76,North,0,0.0,0.0,87,0.00,,,0.00,WUHU21623XXSP,2013-03-24 20:47:00,
2013-03-24 15:52:00,32.5,29.1,29.76,North,0,0.0,0.0,87,0.00,,,0.00,WUHU21623XXSP,2013-03-24 20:52:00,
2013-03-24 15:57:00,32.4,28.9,29.77,North,0,0.0,0.0,87,0.00,,,0.00,WUHU21623XXSP,2013-03-24 20:57:00,
2013-03-24 16:02:00,32.4,28.9,29.77,North,0,0.0,0.0,87,0.00,,,0.00,WUHU21623XXSP,2013-03-24 21:02:00,
2013-03-24 16:07:00,32.4,28.9,29.77,North,0,0.0,0.0,87,0.00,,,0.00,WUHU21623XXSP,2013-03-24 21:07:00,
2013-03-24 16:12:00,32.2,28.5,29.78,North,0,0.0,0.0,86,0.00,,,0.00,WUHU21623XXSP,2013-03-24 21:12:00,
2013-03-24 16:17:00,32.4,28.7,29.78,North,0,0.0,0.0,86,0.00,,,0.00,WUHU21623XXSP,2013-03-24 21:17:00,
2013-03-24 16:22:00,32.4,28.9,29.78,North,0,0.0,0.0,87,0.00,,,0.00,WUHU21623XXSP,2013-03-24 21:22:00,
2013-03-24 16:27:00,32.5,29.1,29.79,North,0,0.0,0.0,87,0.00,,,0.00,WUHU21623XXSP,2013-03-24 21:27:00,
2013-03-24 16:32:00,32.5,29.1,29.79,North,0,0.0,0.0,87,0.00,,,0.00,WUHU21623XXSP,2013-03-24 21:32:00,
2013-03-24 16:37:00,32.7,29.1,29.79,North,0,0.0,0.0,87,0.00,,,0.00,WUHU21623XXSP,2013-03-24 21:37:00,
2013-03-24 16:42:00,32.7,29.3,29.79,North,0,0.0,0.0,87,0.00,,,0.00,WUHU21623XXSP,2013-03-24 21:42:00,
2013-03-24 16:47:00,32.9,29.4,29.79,North,0,0.0,0.0,87,0.00,,,0.00,WUHU21623XXSP,2013-03-24 21:47:00,
2013-03-24 16:52:00,33.1,29.6,29.80,North,0,0.0,0.0,87,0.00,,,0.00,WUHU21623XXSP,2013-03-24 21:52:00,
2013-03-24 16:57:00,32.9,29.4,29.80,North,0,0.0,0.0,87,0.00,,,0.00,WUHU21623XXSP,2013-03-24 21:57:00,
2013-03-24 17:02:00,33.1,29.6,29.80,North,0,0.0,0.0,87,0.00,,,0.00,WUHU21623XXSP,2013-03-24 22:02:00,
2013-03-24 17:07:00,33.1,29.6,29.81,North,0,0.0,0.0,87,0.00,,,0.00,WUHU21623XXSP,2013-03-24 22:07:00,
2013-03-24 17:12:00,32.9,29.1,29.81,North,0,0.0,0.0,86,0.00,,,0.00,WUHU21623XXSP,2013-03-24 22:12:00,
2013-03-24 17:17:00,32.7,29.0,29.81,North,0,0.0,0.0,86,0.00,,,0.00,WUHU21623XXSP,2013-03-24 22:17:00,
2013-03-24 17:22:00,32.7,29.0,29.81,North,0,0.0,0.0,86,0.00,,,0.00,WUHU21623XXSP,2013-03-24 22:22:00,
2013-03-24 17:27:00,32.4,28.7,29.82,North,0,0.0,0.0,86,0.00,,,0.00,WUHU21623XXSP,2013-03-24 22:27:00,
2013-03-24 17:32:00,32.2,28.5,29.82,North,0,0.0,0.0,86,0.00,,,0.00,WUHU21623XXSP,2013-03-24 22:32:00,
2013-03-24 17:37:00,32.2,28.5,29.82,North,0,0.0,0.0,86,0.00,,,0.00,WUHU21623XXSP,2013-03-24 22:37:00,
2013-03-24 17:42:00,31.8,28.1,29.82,North,0,0.0,0.0,86,0.00,,,0.00,WUHU21623XXSP,2013-03-24 22:42:00,
2013-03-24 17:47:00,31.8,28.1,29.82,North,0,0.0,0.0,86,0.00,,,0.00,WUHU21623XXSP,2013-03-24 22:47:00,
2013-03-24 17:52:00,31.8,28.1,29.83,North,0,0.0,0.0,86,0.00,,,0.00,WUHU21623XXSP,2013-03-24 22:52:00,
2013-03-24 17:58:00,31.6,28.0,29.83,North,0,0.0,0.0,86,0.00,,,0.00,WUHU21623XXSP,2013-03-24 22:58:00,
2013-03-24 18:03:00,31.6,28.0,29.83,North,0,0.0,0.0,86,0.00,,,0.00,WUHU21623XXSP,2013-03-24 23:03:00,
2013-03-24 18:08:00,31.6,28.0,29.83,North,0,0.0,0.0,86,0.00,,,0.00,WUHU21623XXSP,2013-03-24 23:08:00,
2013-03-24 18:13:00,31.6,28.0,29.83,North,0,0.0,0.0,86,0.00,,,0.00,WUHU21623XXSP,2013-03-24 23:13:00,
2013-03-24 18:18:00,31.3,27.6,29.83,North,0,0.0,0.0,86,0.00,,,0.00,WUHU21623XXSP,2013-03-24 23:18:00,
2013-03-24 18:23:00,31.3,27.6,29.83,North,0,0.0,0.0,86,0.00,,,0.00,WUHU21623XXSP,2013-03-24 23:23:00,
2013-03-24 18:28:00,31.3,27.6,29.84,North,0,0.0,0.0,86,0.00,,,0.00,WUHU21623XXSP,2013-03-24 23:28:00,
2013-03-24 18:33:00,31.3,27.6,29.84,North,0,0.0,0.0,87,0.00,,,0.00,WUHU21623XXSP,2013-03-24 23:33:00,
2013-03-24 18:38:00,31.1,27.5,29.84,North,0,0.0,0.0,87,0.00,,,0.00,WUHU21623XXSP,2013-03-24 23:38:00,
2013-03-24 18:43:00,30.9,27.5,29.84,North,0,0.0,0.0,87,0.00,,,0.00,WUHU21623XXSP,2013-03-24 23:43:00,
2013-03-24 18:48:00,30.7,27.4,29.84,North,0,0.0,0.0,87,0.00,,,0.00,WUHU21623XXSP,2013-03-24 23:48:00,
2013-03-24 18:53:00,30.9,27.5,29.84,North,0,0.0,0.0,87,0.00,,,0.00,WUHU21623XXSP,2013-03-24 23:53:00,
2013-03-24 18:58:00,30.7,27.4,29.84,North,0,0.0,0.0,87,0.00,,,0.00,WUHU21623XXSP,2013-03-24 23:58:00,
2013-03-24 19:03:00,30.6,27.4,29.85,North,0,0.0,0.0,87,0.00,,,0.00,WUHU21623XXSP,2013-03-25 00:03:00,
2013-03-24 19:08:00,30.6,27.4,29.85,North,0,0.0,0.0,87,0.00,,,0.00,WUHU21623XXSP,2013-03-25 00:08:00,
2013-03-24 19:13:00,30.6,27.2,29.85,North,0,0.0,0.0,87,0.00,,,0.00,WUHU21623XXSP,2013-03-25 00:13:00,
2013-03-24 19:18:00,30.4,27.0,29.86,North,0,0.0,0.0,87,0.00,,,0.00,WUHU21623XXSP,2013-03-25 00:18:00,
2013-03-24 19:23:00,30.4,27.3,29.86,North,0,0.0,0.0,88,0.00,,,0.00,WUHU21623XXSP,2013-03-25 00:23:00,
2013-03-24 19:28:00,30.2,27.1,29.86,North,0,0.0,0.0,88,0.00,,,0.00,WUHU21623XXSP,2013-03-25 00:28:00,
2013-03-24 19:33:00,30.2,27.1,29.86,North,0,0.0,0.0,88,0.00,,,0.00,WUHU21623XXSP,2013-03-25 00:33:00,
2013-03-24 19:38:00,30.0,26.9,29.86,North,0,0.0,0.0,88,0.00,,,0.00,WUHU21623XXSP,2013-03-25 00:38:00,
2013-03-24 19:43:00,30.0,26.9,29.87,North,0,0.0,0.0,88,0.00,,,0.00,WUHU21623XXSP,2013-03-25 00:43:00,
2013-03-24 19:48:00,30.0,26.9,29.87,North,0,0.0,0.0,88,0.00,,,0.00,WUHU21623XXSP,2013-03-25 00:48:00,
2013-03-24 19:53:00,30.0,26.9,29.87,North,0,0.0,0.0,88,0.00,,,0.00,WUHU21623XXSP,2013-03-25 00:53:00,
2013-03-24 19:58:00,30.0,26.9,29.87,North,0,0.0,0.0,88,0.00,,,0.00,WUHU21623XXSP,2013-03-25 00:58:00,
2013-03-24 20:03:00,30.0,26.9,29.87,North,0,0.0,0.0,88,0.00,,,0.00,WUHU21623XXSP,2013-03-25 01:03:00,
2013-03-24 20:08:00,30.0,26.9,29.88,North,0,0.0,0.0,88,0.00,,,0.00,WUHU21623XXSP,2013-03-25 01:08:00,
2013-03-24 20:13:00,30.0,26.9,29.88,North,0,0.0,0.0,88,0.00,,,0.00,WUHU21623XXSP,2013-03-25 01:13:00,
2013-03-24 20:18:00,30.0,26.9,29.88,North,0,0.0,0.0,88,0.00,,,0.00,WUHU21623XXSP,2013-03-25 01:18:00,
2013-03-24 20:23:00,30.0,26.9,29.88,North,0,0.0,0.0,88,0.00,,,0.00,WUHU21623XXSP,2013-03-25 01:23:00,
2013-03-24 20:28:00,30.0,26.9,29.88,North,0,0.0,0.0,88,0.00,,,0.00,WUHU21623XXSP,2013-03-25 01:28:00,
2013-03-24 20:33:00,30.0,26.9,29.88,North,0,0.0,0.0,88,0.00,,,0.00,WUHU21623XXSP,2013-03-25 01:33:00,
2013-03-24 20:38:00,30.0,26.9,29.89,North,0,0.0,0.0,88,0.00,,,0.00,WUHU21623XXSP,2013-03-25 01:38:00,
2013-03-24 20:43:00,30.0,26.9,29.89,North,0,0.0,0.0,88,0.00,,,0.00,WUHU21623XXSP,2013-03-25 01:43:00,
2013-03-24 20:48:00,30.0,26.9,29.89,North,0,0.0,0.0,88,0.00,,,0.00,WUHU21623XXSP,2013-03-25 01:48:00,
2013-03-24 20:53:00,30.0,26.9,29.89,North,0,0.0,0.0,88,0.00,,,0.00,WUHU21623XXSP,2013-03-25 01:53:00,
2013-03-24 20:58:00,30.0,26.9,29.89,North,0,0.0,0.0,88,0.00,,,0.00,WUHU21623XXSP,2013-03-25 01:58:00,
2013-03-24 21:03:00,30.0,26.9,29.89,North,0,0.0,0.0,88,0.00,,,0.00,WUHU21623XXSP,2013-03-25 02:03:00,
2013-03-24 21:08:00,30.0,26.9,29.89,North,0,0.0,0.0,88,0.00,,,0.00,WUHU21623XXSP,2013-03-25 02:08:00,
2013-03-24 21:13:00,30.0,26.9,29.89,North,0,0.0,0.0,88,0.00,,,0.00,WUHU21623XXSP,2013-03-25 02:13:00,
2013-03-24 21:18:00,29.8,26.9,29.90,North,0,0.0,0.0,88,0.00,,,0.00,WUHU21623XXSP,2013-03-25 02:18:00,
2013-03-24 21:23:00,30.0,26.9,29.91,North,0,0.0,0.0,88,0.00,,,0.00,WUHU21623XXSP,2013-03-25 02:23:00,
2013-03-24 21:28:00,30.0,26.9,29.90,North,0,0.0,0.0,89,0.00,,,0.00,WUHU21623XXSP,2013-03-25 02:28:00,
2013-03-24 21:33:00,30.0,27.2,29.90,North,0,0.0,0.0,89,0.00,,,0.00,WUHU21623XXSP,2013-03-25 02:33:00,
2013-03-24 21:38:00,29.8,27.0,29.90,North,0,0.0,0.0,89,0.00,,,0.00,WUHU21623XXSP,2013-03-25 02:38:00,
2013-03-24 21:43:00,30.0,27.2,29.91,North,0,0.0,0.0,89,0.00,,,0.00,WUHU21623XXSP,2013-03-25 02:43:00,
2013-03-24 21:48:00,29.8,27.0,29.91,North,0,0.0,0.0,89,0.00,,,0.00,WUHU21623XXSP,2013-03-25 02:48:00,
2013-03-24 21:53:00,29.8,27.0,29.91,North,0,0.0,0.0,89,0.00,,,0.00,WUHU21623XXSP,2013-03-25 02:53:00,
2013-03-24 21:58:00,29.8,27.0,29.92,North,0,0.0,0.0,89,0.00,,,0.00,WUHU21623XXSP,2013-03-25 02:58:00,
2013-03-24 22:03:00,29.8,27.0,29.92,North,0,0.0,0.0,89,0.00,,,0.00,WUHU21623XXSP,2013-03-25 03:03:00,
2013-03-24 22:08:00,29.8,27.0,29.92,North,0,0.0,0.0,89,0.00,,,0.00,WUHU21623XXSP,2013-03-25 03:08:00,
2013-03-24 22:13:00,29.8,27.0,29.92,North,0,0.0,0.0,89,0.00,,,0.00,WUHU21623XXSP,2013-03-25 03:13:00,
2013-03-24 22:18:00,29.8,27.0,29.92,North,0,0.0,0.0,89,0.00,,,0.00,WUHU21623XXSP,2013-03-25 03:18:00,
2013-03-24 22:23:00,29.8,27.0,29.92,North,0,0.0,0.0,89,0.00,,,0.00,WUHU21623XXSP,2013-03-25 03:23:00,
2013-03-24 22:28:00,29.8,27.0,29.92,North,0,0.0,0.0,89,0.00,,,0.00,WUHU21623XXSP,2013-03-25 03:28:00,
2013-03-24 22:33:00,29.8,27.0,29.92,North,0,0.0,0.0,89,0.00,,,0.00,WUHU21623XXSP,2013-03-25 03:33:00,
2013-03-24 22:38:00,29.8,27.0,29.92,North,0,0.0,0.0,89,0.00,,,0.00,WUHU21623XXSP,2013-03-25 03:38:00,
2013-03-24 22:43:00,29.8,27.0,29.92,North,0,0.0,0.0,89,0.00,,,0.00,WUHU21623XXSP,2013-03-25 03:43:00,
2013-03-24 22:48:00,29.8,27.0,29.93,North,0,0.0,0.0,89,0.00,,,0.00,WUHU21623XXSP,2013-03-25 03:48:00,
2013-03-24 22:53:00,29.8,27.0,29.93,North,0,0.0,0.0,89,0.00,,,0.00,WUHU21623XXSP,2013-03-25 03:53:00,
2013-03-24 22:58:00,29.8,27.0,29.92,North,0,0.0,0.0,89,0.00,,,0.00,WUHU21623XXSP,2013-03-25 03:58:00,
2013-03-24 23:01:00,29.8,27.0,29.93,North,0,0.0,0.0,89,0.00,,,0.00,WUHU21623XXSP,2013-03-25 04:01:00,
2013-03-24 23:03:00,29.8,27.0,29.92,North,0,0.0,0.0,89,0.00,,,0.00,WUHU21623XXSP,2013-03-25 04:03:00,
2013-03-24 23:08:00,29.8,27.0,29.93,North,0,0.0,0.0,89,0.00,,,0.00,WUHU21623XXSP,2013-03-25 04:08:00,
2013-03-24 23:13:00,29.8,27.0,29.93,North,0,0.0,0.0,89,0.00,,,0.00,WUHU21623XXSP,2013-03-25 04:13:00,
2013-03-24 23:18:00,29.8,27.0,29.92,North,0,0.0,0.0,89,0.00,,,0.00,WUHU21623XXSP,2013-03-25 04:18:00,
2013-03-24 23:23:00,29.8,27.0,29.93,North,0,0.0,0.0,89,0.00,,,0.00,WUHU21623XXSP,2013-03-25 04:23:00,
2013-03-24 23:28:00,29.8,27.0,29.92,North,0,0.0,0.0,89,0.00,,,0.00,WUHU21623XXSP,2013-03-25 04:28:00,
2013-03-24 23:31:00,29.8,27.0,29.93,North,0,0.0,0.0,89,0.00,,,0.00,WUHU21623XXSP,2013-03-25 04:31:00,
2013-03-24 23:36:00,29.8,27.0,29.93,North,0,0.0,0.0,89,0.00,,,0.00,WUHU21623XXSP,2013-03-25 04:36:00,
2013-03-24 23:41:00,29.8,27.0,29.93,North,0,0.0,0.0,89,0.00,,,0.00,WUHU21623XXSP,2013-03-25 04:41:00,
2013-03-24 23:46:00,29.8,27.0,29.93,North,0,0.0,0.0,89,0.00,,,0.00,WUHU21623XXSP,2013-03-25 04:46:00,
2013-03-24 23:51:00,29.8,27.0,29.92,North,0,0.0,0.0,89,0.00,,,0.00,WUHU21623XXSP,2013-03-25 04:51:00,
2013-03-24 23:56:00,29.8,27.0,29.93,North,0,0.0,0.0,89,0.00,,,0.00,WUHU21623XXSP,2013-03-25 04:56:00,